CW5272 Weather Reports


Display with metric or nautical units.
time (UTC)temp
F
wind
direction
speed
MPH
gust
MPH
rain 1hr
in
rain 24hr
in
rain mn
in
humidity
%
barometer
mb
20260505153039 50 0 0.0 6.0 0.00 0.00 0.00 88 1015.8
20260505151534 50 0 0.0 4.0 0.00 0.00 0.00 88 1015.5
20260505124535 49 0 0.0 4.0 0.00 0.00 0.00 87 1014.9
20260505123034 49 0 0.0 0.0 0.00 0.00 0.00 87 1014.8
20260505121537 49 0 0.0 0.0 0.00 0.00 0.00 87 1014.9
20260505120031 49 0 0.0 5.0 0.00 0.00 0.00 87 1014.9
20260505114538 49 0 0.0 4.0 0.00 0.00 0.00 87 1014.9
20260505113037 48 287 0.0 5.0 0.00 0.00 0.00 87 1014.8
20260505111534 48 0 0.0 7.0 0.00 0.00 0.00 87 1014.6
20260505101544 49 0 0.0 8.0 0.00 0.00 0.00 87 1014.7
20260505100036 49 0 0.0 5.0 0.00 0.00 0.00 88 1014.9
20260505094532 49 0 0.0 7.0 0.00 0.00 0.00 89 1015.0
20260505093040 49 0 0.0 5.0 0.00 0.00 0.00 89 1015.0
20260505091534 49 0 0.0 3.0 0.00 0.00 0.00 89 1015.2
20260505090044 49 0 0.0 3.0 0.00 0.00 0.00 89 1015.4
20260505084546 50 287 1.0 7.0 0.00 0.00 0.00 89 1015.4
20260505083054 50 0 0.0 5.0 0.00 0.00 0.00 89 1015.3
20260505081534 50 288 1.0 8.0 0.00 0.00 0.00 89 1015.4
20260505080041 50 0 0.0 10.0 0.00 0.00 0.00 89 1015.5
20260505074538 50 0 0.0 10.0 0.00 0.00 0.00 89 1015.4
20260505073036 50 0 0.0 5.0 0.00 0.00 0.00 89 1015.4
20260505071544 50 290 1.0 8.0 0.00 0.00 0.00 89 1015.2
20260505070034 50 0 2.0 8.0 0.00 0.00 0.00 88 1015.2
20260505064534 50 0 0.0 8.0 0.00 0.00 0.00 88 1015.2
20260505063030 50 290 2.0 8.0 0.00 0.00 0.00 87 1015.1
20260505061538 50 0 1.0 8.0 0.00 0.00 0.00 86 1015.1
20260505060038 51 290 2.0 9.0 0.00 0.00 0.00 85 1015.2
20260505054536 51 0 2.0 8.0 0.00 0.00 0.00 85 1015.3
20260505053039 51 0 0.0 5.0 0.00 0.00 0.00 84 1015.6
20260505051532 51 0 2.0 8.0 0.00 0.00 0.00 84 1015.6
20260505041533 53 0 0.0 7.0 0.00 0.00 0.00 78 1015.3
20260505040040 53 0 0.0 9.0 0.00 0.00 0.00 79 1015.0
20260505034538 53 0 1.0 9.0 0.00 0.00 0.00 79 1014.7
20260505033038 53 0 1.0 12.0 0.00 0.00 0.00 80 1014.6
20260505031543 54 292 3.0 12.0 0.00 0.00 0.00 78 1014.7
20260505030032 55 0 1.0 9.0 0.00 0.00 0.00 77 1014.8
20260505024545 56 242 0.0 9.0 0.00 0.00 0.00 75 1014.7
20260505023040 56 241 2.0 7.0 0.00 0.00 0.00 74 1014.6
20260505021529 57 0 0.0 7.0 0.00 0.00 0.00 73 1014.6
20260505020032 57 0 1.0 8.0 0.00 0.00 0.00 72 1014.5
20260505014540 58 0 0.0 8.0 0.00 0.00 0.00 71 1014.6
20260505013033 58 241 0.0 10.0 0.00 0.00 0.00 70 1014.7
20260505011536 59 246 0.0 4.0 0.00 0.00 0.00 70 1014.6
20260505010033 60 246 0.0 9.0 0.00 0.00 0.00 70 1014.9
20260505004534 61 0 2.0 11.0 0.00 0.00 0.00 67 1014.9
20260505003032 63 228 2.0 14.0 0.00 0.00 0.00 63 1015.0
20260505001543 64 0 2.0 10.0 0.00 0.00 0.00 63 1014.9
20260505000029 62 0 3.0 8.0 0.00 0.00 0.00 64 1014.8
20260504234529 61 0 0.0 4.0 0.00 0.00 0.00 67 1014.9
20260504233032 62 0 0.0 8.0 0.00 0.00 0.00 64 1014.7
20260504231532 61 225 0.0 7.0 0.00 0.00 0.00 65 1014.9
20260504230030 61 222 1.0 8.0 0.00 0.00 0.00 62 1015.0
20260504224536 63 0 1.0 8.0 0.00 0.00 0.00 59 1015.0
20260504223028 63 0 0.0 9.0 0.00 0.00 0.00 56 1015.1
20260504221532 63 229 0.0 7.0 0.00 0.00 0.00 62 1015.2
20260504220033 63 225 3.0 8.0 0.00 0.00 0.00 62 1015.4
20260504214532 62 0 1.0 9.0 0.00 0.00 0.00 64 1015.6
20260504213031 63 0 2.0 9.0 0.00 0.00 0.00 65 1015.5
20260504211533 60 207 0.0 7.0 0.00 0.00 0.00 71 1015.9
20260504210044 57 206 1.0 7.0 0.00 0.00 0.00 75 1015.9
20260504204546 58 205 0.0 6.0 0.00 0.00 0.00 77 1015.7
20260504203035 57 0 0.0 5.0 0.00 0.00 0.00 76 1015.8
20260504201531 57 207 0.0 5.0 0.00 0.00 0.00 76 1015.9
20260504200029 58 206 0.0 3.0 0.00 0.00 0.00 76 1015.9
20260504194532 58 0 1.0 7.0 0.00 0.00 0.00 74 1015.9
20260504193032 58 0 1.0 7.0 0.00 0.00 0.00 76 1015.9
20260504191531 57 209 0.0 7.0 0.00 0.00 0.00 78 1016.0
20260504190031 56 213 2.0 8.0 0.00 0.00 0.00 80 1016.2
20260504184531 55 0 1.0 8.0 0.00 0.00 0.00 81 1016.3
20260504183034 55 211 1.0 7.0 0.00 0.00 0.00 81 1016.2
20260504181533 56 211 2.0 7.0 0.00 0.00 0.00 79 1016.1
20260504180032 55 0 1.0 6.0 0.00 0.00 0.00 81 1016.0
20260504174534 56 0 2.0 9.0 0.00 0.00 0.00 77 1015.7
20260504173055 56 0 1.0 5.0 0.00 0.00 0.00 78 1015.5
20260504171535 56 0 0.0 5.0 0.00 0.00 0.00 76 1015.5